RH
9 7 7 8 8 17 32 32 33 30 30 26 24 23 20 14 5 4 4 3 4 4 5 6 5 5 6 8 9 9 5 4 5 4 4 4 3 4 5 11 100 98 99 78 36
10 9 8 8 9 22 31 32 35 30 29 26 24 22 19 12 6 4 3 4 5 6 7 6 5 5 7 10 11 6 4 5 4 3 4 5 5 5 6 26 98 97 97 96 36
11 11 10 9 11 24 30 30 35 32 29 25 25 22 16 8 4 3 4 6 8 9 8 6 5 5 7 12 10 6 5 5 4 5 7 7 7 7 7 33 96 95 100 89 32
13 13 12 12 14 27 28 31 34 33 32 25 25 22 13 6 6 6 6 8 9 10 8 6 6 6 9 12 8 5 6 6 8 10 9 9 9 9 8 70 92 100 93 86 54
15 15 15 15 17 25 27 30 32 32 30 25 24 20 11 8 7 7 8 9 11 10 7 6 6 7 12 11 7 7 8 10 14 14 14 10 11 11 10 45 99 98 99 100 76
17 18 17 17 21 31 27 29 32 31 26 24 20 11 8 7 7 8 10 10 11 9 7 6 6 8 13 10 6 8 13 19 56 71 57 19 15 10 32 58 96 99 94 88 82
20 20 20 19 22 29 33 33 31 28 24 22 14 8 8 7 8 9 10 12 12 10 7 5 6 9 11 9 8 9 15 63 79 81 80 55 25 15 37 83 99 98 98 98 99
24 24 23 22 24 37 37 35 32 27 20 18 12 9 8 9 8 9 14 14 12 10 6 6 8 11 11 8 7 8 14 71 100 90 76 65 26 19 35 76 93 95 79 98 99
28 27 26 25 27 40 42 38 33 26 17 11 8 8 10 10 12 14 14 14 11 8 6 7 10 10 9 7 9 8 16 51 100 76 66 55 39 35 60 76 98 100 97 99 100
32 31 29 29 32 49 46 39 33 23 12 9 9 8 10 11 13 16 15 13 12 9 6 7 9 10 9 7 6 8 17 48 69 72 68 54 49 84 96 90 91 98 98 98 99
36 38 36 32 37 52 46 41 32 20 11 10 9 10 13 14 16 16 16 13 11 8 7 8 9 11 7 7 9 14 23 42 35 61 71 69 53 82 78 76 94 97 98 98 96
48 58 44 37 49 51 49 39 32 17 14 10 11 12 13 15 17 17 17 13 14 9 7 10 12 10 6 9 14 19 23 23 46 49 67 69 90 63 41 42 56 79 97 97 96
69 63 48 47 56 54 50 45 25 11 10 13 13 15 16 16 17 18 17 14 14 8 7 9 12 9 8 11 20 24 24 34 66 100 98 91 96 100 100 95 66 53 84 97 100
70 57 54 55 57 56 56 43 17 11 12 14 13 17 20 19 20 20 15 16 13 8 9 12 14 9 10 11 22 24 40 60 67 100 100 100 100 100 100 100 96 98 72 70 84
72 59 59 62 60 59 56 41 20 14 17 16 19 20 19 21 22 20 16 16 12 9 10 13 14 8 11 15 23 27 35 54 70 100 100 100 100 94 100 89 63 52 46 50 62
73 64 63 65 66 65 60 43 26 19 21 24 23 24 28 24 22 19 18 16 10 10 10 18 15 8 6 16 25 27 48 65 94 98 85 96 83 92 83 88 100 98 69 58 53
70 60 63 66 70 70 54 38 25 22 22 25 27 27 24 25 24 20 23 17 11 8 9 18 14 9 11 18 26 26 39 57 83 100 99 98 85 82 78 94 100 100 94 66 58
62 56 64 68 72 69 50 36 26 23 25 28 29 29 28 27 25 23 21 13 10 8 12 19 13 8 9 16 27 28 34 48 66 100 100 95 100 100 100 96 100 100 81 64 45
72 63 66 71 76 72 58 37 32 27 28 30 32 31 33 31 24 22 18 12 9 7 13 20 14 8 9 19 32 42 68 71 63 94 90 100 100 100 100 92 100 100 100 70 51
85 71 70 79 78 77 65 46 39 32 31 34 38 37 37 35 26 23 16 12 7 8 17 19 14 8 10 14 34 37 76 93 77 94 65 83 98 100 100 99 100 100 100 61 49
97 81 77 81 81 81 62 52 46 38 33 35 39 42 38 38 27 24 14 11 7 10 17 19 13 8 9 17 26 44 64 94 99 75 84 56 96 100 100 99 99 98 100 96 48
99 97 97 88 86 80 59 54 49 41 34 38 41 45 42 38 28 24 14 9 6 9 18 19 12 8 8 16 24 51 53 99 90 66 99 81 88 99 100 100 96 100 100 98 100
97 100 99 91 90 72 60 58 50 42 39 43 46 48 46 35 29 22 15 7 7 12 20 18 12 8 8 16 27 42 60 99 95 73 99 84 82 100 83 100 100 100 100 77 100
98 99 98 92 90 66 62 56 47 45 48 51 53 51 47 33 31 19 14 6 8 17 20 20 12 8 8 9 22 38 54 88 92 92 100 80 82 86 100 100 100 100 100 99 93
97 99 96 89 92 70 65 56 48 53 56 59 60 56 40 35 32 18 11 6 10 17 21 20 13 9 8 10 17 39 36 59 89 84 94 98 98 100 100 100 99 100 100 99 92
97 100 93 98 87 72 65 52 50 58 61 67 65 56 40 36 27 17 8 6 10 18 22 20 14 10 9 10 12 35 53 46 72 80 83 100 95 98 99 100 100 100 100 100 99
96 98 92 96 85 76 65 56 54 59 66 73 64 55 41 39 24 15 7 7 14 20 25 21 15 12 11 12 12 27 45 43 48 75 72 86 95 100 100 100 100 100 100 100 99
Wind_Speed
23 23 23 25 25 28 34 38 37 36 34 32 28 23 21 23 27 31 36 38 43 51 57 64 68 71 75 75 74 72 60 47 39 32 26 26 27 34 38 45 67 63 62 62 60
25 24 25 27 26 28 34 40 40 37 35 31 27 24 23 24 28 32 35 42 49 57 63 67 70 69 73 73 70 64 54 42 34 24 17 19 22 31 35 52 66 65 65 69 63
27 26 26 27 28 29 35 41 41 37 35 30 27 25 25 24 27 33 42 48 52 61 70 69 71 73 74 71 68 56 42 35 26 15 14 16 19 28 27 58 67 74 73 74 63
26 27 29 29 27 29 36 43 41 37 34 30 28 26 27 25 30 37 44 48 56 63 69 72 71 73 72 69 64 47 38 30 20 15 16 14 19 21 26 61 73 70 68 69 72
27 27 28 30 28 32 37 43 40 37 32 29 28 27 27 29 36 41 44 50 57 66 71 71 70 71 69 67 59 42 31 19 14 12 13 9 18 26 30 56 79 72 63 73 74
29 29 28 30 29 32 38 44 41 36 31 28 27 29 31 31 36 41 44 51 61 69 73 72 70 68 66 64 54 38 22 11 7 7 9 6 17 24 34 55 78 71 69 72 70
30 31 29 29 29 34 41 43 39 34 29 27 27 32 33 33 35 41 49 56 63 69 75 73 69 67 65 58 47 36 17 8 7 5 7 7 13 20 39 58 74 82 71 60 60
31 31 30 31 31 36 39 40 38 32 28 27 29 30 35 35 40 46 53 58 66 73 74 71 68 64 62 54 44 34 16 8 3 6 8 10 3 15 36 50 63 80 72 71 72
30 31 31 30 31 37 39 40 37 30 28 27 31 32 38 41 47 49 52 58 67 73 72 68 64 62 56 51 39 33 9 9 6 7 9 8 8 15 24 36 48 62 73 61 75
31 32 31 31 31 39 39 40 36 29 27 27 29 36 39 43 47 50 54 60 67 74 74 67 62 59 55 45 37 17 1 6 7 2 3 3 6 10 13 29 43 66 72 59 52
29 30 34 32 34 37 38 41 32 29 27 30 33 40 42 47 48 51 55 64 71 75 72 66 61 55 50 41 25 10 4 2 1 1 2 6 15 11 10 18 37 29 36 65 55
29 34 32 32 36 36 38 38 32 31 28 33 35 42 45 48 49 52 57 65 73 76 71 64 57 52 47 36 13 8 3 5 5 5 5 13 19 15 10 21 28 27 30 63 54
36 32 29 30 35 36 38 37 29 28 27 34 38 43 46 50 52 56 59 67 77 77 69 59 55 50 42 26 9 6 5 6 8 9 11 12 24 5 8 10 25 33 36 51 51
32 28 28 29 31 34 35 34 26 27 30 35 41 44 49 51 54 58 62 69 76 72 66 58 53 47 36 20 7 4 4 5 6 9 10 13 6 9 5 10 11 13 32 53 58
30 28 28 29 32 35 36 30 26 30 36 37 42 47 49 52 55 59 63 72 74 74 65 56 48 43 32 12 4 4 3 2 10 15 7 1 4 9 7 12 7 4 28 52 59
31 27 27 29 32 35 36 28 26 29 34 38 44 49 49 52 54 57 65 72 74 77 64 51 47 40 34 10 2 2 4 5 11 14 11 6 8 12 8 12 14 2 17 29 52
26 23 25 28 33 35 33 26 27 29 34 41 44 47 51 52 54 57 67 72 75 74 61 47 44 37 26 11 2 3 5 7 6 5 10 5 5 12 12 10 9 5 14 23 45
23 22 26 28 31 34 30 28 28 31 35 41 44 48 51 52 54 60 66 71 75 69 56 44 40 34 27 13 3 5 4 6 7 2 8 6 7 12 6 7 5 4 18 28 37
23 25 27 30 32 34 31 28 28 30 35 40 44 48 52 53 54 62 67 72 76 69 54 42 39 36 26 14 3 6 4 8 9 5 7 4 4 8 10 12 5 6 25 27 35
28 28 28 31 34 36 33 30 29 29 35 40 44 48 50 54 56 63 68 73 72 64 52 40 36 33 26 16 2 7 8 8 14 7 7 7 6 3 7 3 6 2 22 24 32
29 28 29 31 34 37 32 30 31 31 35 41 45 49 49 52 56 63 66 69 68 58 47 37 35 32 26 15 4 7 9 10 14 5 12 11 6 3 8 7 3 12 17 28 31
27 30 30 32 34 35 30 28 30 31 35 41 46 50 50 52 56 63 66 69 64 56 41 34 32 31 28 17 7 10 9 10 9 7 9 12 9 2 3 7 5 1 24 30 30
27 29 31 31 34 31 28 28 29 30 36 42 47 49 50 50 57 61 66 67 60 51 37 33 31 29 28 20 9 12 12 13 10 8 7 12 13 3 9 0 3 11 18 30 33
29 30 32 30 34 30 28 26 28 31 37 42 45 48 47 50 57 61 65 64 55 45 35 31 30 30 27 20 8 8 15 16 15 8 10 12 11 10 8 5 6 9 9 22 38
30 31 30 31 32 28 26 26 28 33 38 43 43 45 46 51 56 58 62 59 51 41 32 29 28 29 26 19 9 9 14 17 21 15 10 13 13 11 10 7 5 6 5 24 46
31 32 31 31 31 27 25 27 30 36 40 40 41 43 44 52 55 59 61 56 48 38 29 28 28 28 25 20 11 9 8 19 24 23 16 13 15 13 11 8 2 2 9 13 44
32 32 32 32 32 27 26 30 35 34 36 38 39 41 45 52 53 58 58 53 42 34 28 27 27 28 24 20 14 10 11 15 24 27 23 18 16 12 9 10 8 2 6 12 21
Wind_Direction
332 332 329 332 335 341 346 347 344 336 330 328 329 324 321 321 327 328 331 329 335 339 339 337 333 329 325 319 321 321 319 313 303 296 278 254 237 224 222 206 193 193 184 200 213
332 332 331 332 333 340 344 348 342 335 331 331 330 324 322 321 329 333 337 339 339 342 339 337 333 328 320 323 324 325 320 316 309 295 259 237 234 227 216 199 190 183 177 194 209
332 334 333 332 332 336 344 345 339 334 333 333 329 327 326 329 335 336 338 342 341 344 341 337 334 329 324 324 326 327 321 318 306 284 253 239 235 228 218 196 187 182 185 195 201
330 333 333 333 333 334 344 343 336 331 332 333 332 330 331 332 333 335 340 340 340 342 343 338 334 329 323 327 329 327 326 323 306 285 275 259 237 227 218 191 186 177 193 196 197
330 331 332 332 331 333 342 338 334 332 333 335 335 332 330 328 331 334 337 340 342 342 343 337 335 327 327 330 331 329 328 317 304 294 287 270 229 214 205 197 192 184 179 192 195
326 328 332 332 329 335 342 335 333 336 339 338 338 339 332 329 336 337 337 344 345 343 340 338 336 331 332 331 332 331 320 291 292 304 321 230 232 222 208 199 196 184 184 186 191
325 328 331 328 327 335 336 333 332 337 340 340 342 341 336 335 339 341 342 346 344 342 343 341 338 335 334 333 331 329 303 266 263 327 348 292 256 228 210 196 200 193 184 181 176
323 328 329 327 328 337 335 333 332 337 338 342 341 336 338 334 333 340 343 341 345 344 345 341 339 336 335 334 332 333 306 242 199 304 337 333 240 214 204 207 205 197 185 176 183
322 325 330 327 328 335 331 331 332 335 340 342 340 339 335 337 340 337 339 343 344 346 346 344 341 337 336 338 335 326 281 221 245 347 333 336 166 178 206 217 216 211 196 172 185
321 325 329 326 330 334 329 330 332 336 337 339 343 343 344 343 343 342 343 344 345 347 346 345 342 341 341 337 338 343 214 228 251 341 349 2 176 175 188 211 222 210 203 191 179
319 328 327 327 331 330 329 331 332 335 333 338 339 339 339 339 342 344 345 344 347 349 348 348 345 344 343 343 348 9 50 7 146 196 158 147 145 181 195 214 217 221 220 198 182
317 315 321 325 329 327 331 332 334 331 331 335 336 338 340 341 344 346 346 345 348 348 349 348 346 346 347 351 360 26 64 103 128 146 124 153 147 155 163 226 236 246 236 208 195
307 313 321 321 326 326 332 330 329 330 329 333 337 336 338 341 343 347 347 348 349 351 349 348 348 349 353 354 8 37 77 108 115 115 119 131 152 165 179 171 220 236 244 221 207
308 313 318 321 322 321 326 327 325 333 328 334 336 339 339 342 347 347 347 350 351 350 349 351 350 349 351 1 359 70 107 99 152 121 132 145 188 162 118 126 189 217 224 228 206
306 313 318 320 318 321 325 322 319 324 329 335 338 339 340 344 346 345 348 350 351 350 350 350 349 350 352 360 352 86 95 133 145 103 90 154 136 166 120 135 165 239 215 219 212
306 308 318 318 316 321 325 319 319 325 333 337 337 341 343 343 345 346 349 351 351 350 349 348 347 355 356 1 17 77 101 143 137 88 72 21 138 151 133 155 155 223 215 216 218
308 309 312 314 315 322 324 318 322 324 328 335 336 339 343 345 344 347 349 351 351 352 349 349 349 355 355 356 150 149 168 176 204 93 53 49 183 187 181 191 216 314 208 203 214
307 300 305 307 313 320 320 316 320 325 333 337 337 340 343 344 345 347 350 351 351 351 348 351 354 358 358 3 152 171 189 196 221 141 87 123 188 185 188 204 324 114 186 188 207
302 301 301 304 309 316 315 311 317 326 335 336 337 341 343 343 344 346 350 352 352 352 351 353 352 360 4 354 189 183 191 166 190 176 128 128 81 217 228 218 316 6 184 181 196
289 299 300 301 306 311 311 302 311 322 333 337 340 342 342 343 343 346 351 352 351 351 352 355 357 359 359 7 265 201 170 162 168 187 189 174 101 144 120 142 301 254 169 172 187
278 289 296 298 303 308 308 302 305 318 329 338 342 343 342 343 342 346 351 351 351 352 352 355 356 360 0 355 297 211 189 173 164 219 212 185 198 112 152 162 166 279 195 178 181
274 284 290 295 301 308 306 303 306 314 322 334 339 341 341 342 342 347 349 349 350 350 353 354 355 359 359 360 320 223 203 191 189 209 207 191 197 246 211 85 102 109 183 180 178
276 281 288 292 298 303 301 303 306 314 321 331 336 338 340 340 340 347 348 348 349 350 354 352 355 357 359 351 330 232 212 191 196 208 216 191 217 189 267 141 26 11 167 189 188
282 282 283 291 295 295 299 302 307 317 323 330 334 337 338 339 341 346 347 347 348 352 353 352 352 355 356 351 343 304 222 205 197 217 203 200 226 215 215 136 11 11 136 168 175
278 276 277 286 288 289 292 297 307 318 325 329 332 336 337 337 341 345 345 345 347 352 351 350 350 352 355 348 324 290 239 219 210 216 205 204 212 217 217 176 262 39 118 160 174
271 271 273 280 282 286 293 298 309 317 325 326 332 334 336 335 340 344 344 345 346 352 350 348 347 348 351 349 326 262 270 231 222 220 221 218 213 207 196 189 143 157 104 144 175
267 266 266 279 276 282 289 299 308 317 322 324 332 331 333 335 340 342 342 342 346 352 348 345 344 346 348 343 331 255 249 245 229 225 225 227 221 201 176 177 176 152 140 140 161